Home > Weather > Springfield > Past weeks

Flag for U.S.A. Weather for the Past 2 Weeks in Springfield, Massachusetts, U.S.A.

Now
24 °F

Overcast.


Feels Like: 11 °F
Forecast: 14 / 26 °F
Wind: 15 mph from Northwest

Location: Barnes Municipal Airport

Current Time: Feb 11, 2016 at 6:57:23 AM

Latest Report: Feb 11, 2016 at 5:53 AM


Visibility: 10 mi

Pressure: 29.73 "Hg

Humidity: 60%

Dew point: 12 °F

Location of SpringfieldLocation

Historic Weather in Springfield — Graph

°F

Springfield Temperature Yesterday

Maximum temperature yesterday: 34 °F (at 3:53 PM)
Minimum temperature yesterday: 18 °F (at 1:53 AM)
Average temperature yesterday: 27 °F

High & Low Weather Summary for the Past Weeks

 TemperatureHumidityPressure
High59 °F (Feb 1, 10:53 AM)97% (Feb 3, 4:53 PM)30.40 "Hg (Feb 3, 4:53 PM)
Low12 °F (Feb 6, 6:53 AM)30% (Feb 8, 9:53 AM)29.41 "Hg (Jan 29, 12:53 PM)
Average33 °F67%29.94 "Hg
* Reported Jan 27 5:53 AM — Feb 11 5:53 AM, Springfield, Weather by CustomWeather, © 2016

Note: Actual official high and low records may vary slightly from our data, if they occured in-between our weather recording intervals... More about our weather records

Advertising

Springfield Weather History for the Previous 24 Hours

 ConditionsComfort  
Time TempWeatherWind HumidityBarometerVisibility
5:53 AM
Thu, Feb 11
24 °FOvercast.15 mph60%29.73 "Hg10 mi
4:53 AM24 °FOvercast.8 mph62%29.70 "Hg10 mi
3:53 AM23 °FMostly cloudy.5 mph60%29.69 "Hg10 mi
2:53 AM23 °FMostly cloudy.7 mph63%29.69 "Hg10 mi
1:53 AM25 °FPassing clouds.5 mph60%29.69 "Hg10 mi
12:53 AM25 °FPassing clouds.5 mph66%29.70 "Hg10 mi
11:53 PM
Wed, Feb 10
26 °FClear.5 mph63%29.70 "Hg10 mi
10:53 PM28 °FClear.7 mph61%29.70 "Hg10 mi
9:53 PM28 °FPassing clouds.6 mph66%29.69 "Hg10 mi
8:53 PM29 °FPassing clouds.8 mph66%29.67 "Hg10 mi
7:53 PM29 °FPassing clouds.3 mph72%29.67 "Hg10 mi
6:53 PM32 °FPassing clouds.7 mph69%29.66 "Hg10 mi
5:53 PM33 °FMostly cloudy.14 mph70%29.64 "Hg10 mi
4:53 PM34 °FOvercast.3 mph70%29.61 "Hg10 mi
3:53 PM34 °FOvercast.7 mph82%29.59 "Hg10 mi
2:53 PM33 °FOvercast.5 mph85%29.57 "Hg10 mi
1:53 PM33 °FMostly cloudy.6 mph82%29.56 "Hg10 mi
12:53 PM32 °FMostly cloudy.3 mph85%29.56 "Hg10 mi
12:00 PM30 °FOvercast.3 mph89%29.55 "Hg7 mi
10:53 AM27 °FLight snow. Ice fog.No wind92%29.60 "Hg1 mi
9:53 AM26 °FSnow. Ice fog.No wind92%29.61 "Hg1 mi
8:53 AM25 °FLight snow. Ice fog.No wind92%29.61 "Hg1 mi
7:53 AM24 °FSnow. Ice fog.No wind91%29.61 "Hg1 mi
6:53 AM23 °FLight snow. Ice fog.No wind92%29.60 "Hg1 mi
Weather by CustomWeather, © 2016

See weather overviewHow to use our weather pages